Regional Weather Roundup
Issued by NWS

Home | Current Version | Previous Version | Graphics & Text | Print | Product List | Glossary On
Versions: 1 2 3 4 5 6 7 8 9 10 11 12 13 14 15 16 17 18 19 20 21 22 23 24 25 26 27 28 29 30 31 32 33 34 35 36 37 38 39 40 41 42 43 44 45 46 47 48 49 50
000
ASUS45 KBOU 310307
RWRCO

WEATHER ROUNDUP FOR COLORADO
NATIONAL WEATHER SERVICE DENVER/BOULDER CO
900 PM MDT WED JUL 30 2014

NOTE: "FAIR" INDICATES FEW OR NO CLOUDS BELOW 12000 FEET WITH NO
SIGNIFICANT WEATHER AND/OR OBSTRUCTIONS TO VISIBILITY.

COZ001>005-013-030-031-310400-
...NORTHWEST COLORADO...

CITY           SKY/WX    TMP DP  RH WIND       PRES   REMARKS
CRAIG          CLOUDY    59  56  89 E5        30.30R
HAYDEN         CLOUDY    61  54  77 E8        30.31S
MEEKER         CLOUDY    66  52  60 NE10      30.30R
MOUNT WERNER   NOT AVBL
STEAMBOAT SPGS CLOUDY    59  54  85 CALM      30.34S
WALDEN         CLOUDY    54  45  71 E8        30.43R
$$

COZ006>008-011-310400-
...WEST CENTRAL VALLEYS...

CITY           SKY/WX    TMP DP  RH WIND       PRES   REMARKS
GRAND JUNCTION PTCLDY    68  60  75 N3        30.16R
MONTROSE       PTCLDY    72  53  51 VRB6      30.22R
EAGLE          CLOUDY    64  55  72 W6        30.33R
RIFLE          CLOUDY    70  56  61 CALM      30.22R
DELTA          PTCLDY    78  54  43 W9        30.15R
NUCLA          CLEAR     73  52  46 NW6       30.23R
$$

COZ017>023-064>068-310400-
...SOUTHWEST COLORADO...

CITY           SKY/WX    TMP DP  RH WIND       PRES   REMARKS
DURANGO        PTCLDY    75  48  38 NW7       30.22R
CORTEZ         CLEAR     73  51  46 CALM      30.18R
PAGOSA SPRINGS PTCLDY    63  49  59 CALM      30.30R
TELLURIDE      NOT AVBL
WOLF CREEK PAS NOT AVBL
$$

COZ009-010-012-014-032>034-037-058>063-310400-
...CENTRAL COLORADO...

CITY           SKY/WX    TMP DP  RH WIND       PRES   REMARKS
ASPEN          CLOUDY    57  54  89 SW6       30.37S
BUENA VISTA    RAIN      56  53  88 E5        30.43R
COPPER MTN     LGT RAIN  45  41  87 N3        30.66R
BERTHOUD PASS  TSTM      36  34  93 E10       30.71R VSB 1/4
COTTONWOOD PAS LGT RAIN  54  50  87 SE3       30.54R
GUNNISON       PTCLDY    64  46  52 N7        30.35R
KREMMLING      RAIN      55  52  88 CALM      30.41R
LEADVILLE      RAIN      47  46  97 E5        30.51R FOG
MONARCH PASS   HVY SNOW  43  43 100 NE23      30.73S VSB<1/4
SALIDA         CLOUDY    58  54  85 E10       30.47R
SUNLIGHT       CLOUDY    52  46  82 NW3       30.59R
WILKERSON PASS RAIN      43  43 100 NE9       30.65R VSB 1
$$

COZ069>075-310400-
...SAN LUIS VALLEY/SANGRE DE CRISTO MOUNTAINS...

CITY           SKY/WX    TMP DP  RH WIND       PRES   REMARKS
ALAMOSA        TSTM      57  55  93 E6        30.34R FOG
LA VETA PASS   CLOUDY    46  45  93 NE10      30.56R VSB 1/2
SAGUACHE       MOCLDY    61  54  77 S5        30.38R
$$

COZ035-036-038>040-310400-
...NORTHERN COLORADO FRONT RANGE...

CITY           SKY/WX    TMP DP  RH WIND       PRES   REMARKS
DENVER INTL AP CLOUDY    59  56  89 SW9       30.34S
DMNS CITY PARK   N/A     57  56  96 SW5       30.35R
AURORA         LGT RAIN  57  56  99 SW6       30.36F
FRONT RANGE AP NOT AVBL
ERIE MUNI ARPT CLOUDY    58  57  96 SW7       30.33F
BOULDER MUN AP DRIZZLE   57  57 100 SW8       30.35S
CENTENNIAL     LGT RAIN  56  54  93 SW6       30.37S FOG
BROOMFIELD     DRIZZLE   57  57 100 SW5       30.37
FORT COLLINS   CLOUDY    59  55  88 S7        30.34F
LONGMONT       LGT RAIN  60  58  92 SW3       30.36R
$$

COZ041-046-047-076>085-087-088-310400-
...PIKES PEAK/PALMER DIVIDE AND SOUTHERN FOOTHILLS...

CITY           SKY/WX    TMP DP  RH WIND       PRES   REMARKS
COLO. SPRINGS  CLOUDY    58  53  84 E5        30.40R
A. F. ACADEMY  CLOUDY    55  55 100 SE7       30.40S
ELLICOTT       CLOUDY    58  53  84 E6        30.37S
FALCON         LGT RAIN  54  52  93 CALM      30.43R
FORT CARSON    DRIZZLE   59  57  94 CALM      30.38R
LIMON          CLOUDY    59  52  77 SW5       30.34R
MONUMENT HILL  RAIN      52  50  93 SE5       30.41S
TRINIDAD       CLOUDY    60  56  86 E7        30.34R
$$

COZ042>045-048>051-090-091-310400-
...NORTHEAST COLORADO...

CITY           SKY/WX    TMP DP  RH WIND       PRES   REMARKS
GREELEY ARPT   NOT AVBL
AKRON          MOCLDY    59  53  80 W9        30.30S
BURLINGTON     CLOUDY    64  58  80 NW6       30.27R
WRAY             N/A     65  58  79 W6        30.25R
STERLING       MOCLDY    64  61  88 W7        30.26S
HOLYOKE        CLOUDY    63  57  82 W6        30.24S
FORT MORGAN    MOCLDY    59  56  90 W3        30.31S
$$

COZ086-089-092>099-310400-
...SOUTHEAST COLORADO...

CITY           SKY/WX    TMP DP  RH WIND       PRES   REMARKS
PUEBLO         RAIN      61  60  97 S8        30.32R
LA JUNTA       MOCLDY    65  59  81 SE6       30.28R
LAMAR          MOCLDY    61  58  90 S3        30.24S
SPRINGFIELD      N/A     61  58  90 NE7       30.29R
$$


USA.gov is the U.S. government's official web portal to all federal, state and local government web resources and services.